Regional Weather Roundup
Issued by NWS Huntsville, AL

Home | Current Version | Previous Version | Text Only | Print | Product List | Glossary On
Versions: 1 2 3 4 5 6 7 8 9 10 11 12 13 14 15 16 17 18 19 20 21 22 23 24 25 26 27 28 29 30 31 32 33 34 35 36 37 38 39 40 41 42 43 44 45 46 47 48 49 50
703
ASUS44 KHUN 170410
RWRHUN

WEATHER ROUNDUP FOR THE TENNESSEE VALLEY
NATIONAL WEATHER SERVICE HUNTSVILLE AL
1000 PM CST MON JAN 16 2017

ALZ001>004-170500-
NORTHWEST ALABAMA

CITY           SKY/WX    TMP DP  RH WIND       PRES   REMARKS
COURTLAND HCN    N/A     66 N/A N/A S9          N/A
RUSSELLVILLE     N/A     64 N/A N/A MISG        N/A
SHOALS AIRPORT MOCLDY    67  53  61 S12       30.09F
SHOALS TVA RES   N/A     68 N/A N/A MISG        N/A
$$

ALZ005>007-016-170500-
NORTH CENTRAL ALABAMA

CITY           SKY/WX    TMP DP  RH WIND       PRES   REMARKS
CULLMAN AG STN   N/A     64 N/A N/A SE5         N/A
DECATUR AP     CLOUDY    65  55  70 S12       30.12F
HUNTSVILLE AP  CLOUDY    67  53  61 S15       30.12F
MERIDIANVILLE  CLOUDY    66  50  55 S10G17    30.14R
REDSTONE ARSN  CLOUDY    65  53  64 S8        30.12S
$$

ALZ008>010-170500-
NORTHEAST ALABAMA

CITY           SKY/WX    TMP DP  RH WIND       PRES   REMARKS
ALBERTVILLE    MOCLDY    63  57  82 SE8       30.16S
FORT PAYNE     CLOUDY    61  50  67 MISG      30.17F
SCOTTSBORO AP  MOCLDY    64  52  63 S9G16     30.16F
SCOTTSBORO HCN   N/A     64 N/A N/A MISG        N/A
VALLEY HEAD      N/A     61 N/A N/A MISG        N/A
$$

TNZ076-096-097-170500-
SOUTHEASTERN MIDDLE TENNESSEE

CITY           SKY/WX    TMP DP  RH WIND       PRES   REMARKS
TULLAHOMA      NOT AVBL
$$

...SURROUNDING SITES...

CITY           SKY/WX    TMP DP  RH WIND       PRES   REMARKS
ATLANTA        PTCLDY    59  55  87 E7        30.25S
ANNISTON       PTCLDY    61  53  75 N6        30.20S
BIRMINGHAM     PTCLDY    67  56  67 S8        30.19S
CHATTANOOGA    PTCLDY    59  53  80 S7        30.19F
DALTON         CLEAR     55  54  94 S3        30.21S
GADSDEN        MOCLDY    56  52  86 CALM      30.19S
GOLDEN TRNGL   CLEAR     64  55  72 S14G20    30.06S
HALEYVILLE     CLOUDY    64  55  72 S12G18    30.14S
JACKSON TN     RAIN      64  62  93 S10       29.99F FOG
MEMPHIS        CLOUDY    68  61  78 S20G29    29.97R
NASHVILLE      CLOUDY    61  55  81 S14       30.07F
OXFORD MS      FAIR      64  57  77 S10G18    30.06S
ROME           PTCLDY    59  53  80 SE6       30.21S
TUPELO         CLOUDY    65  57  75 SE8       30.06F
TUSCALOOSA     PTCLDY    68  58  70 S13       30.15R
$$

...GULF COAST WEATHER...

CITY           SKY/WX    TMP DP  RH WIND       PRES   REMARKS
GULFPORT       MOCLDY    66  65  96 SE9       30.14F
PASCAGOULA     MOCLDY    68  65  90 SE7       30.17S
MOBILE         CLOUDY    67  65  93 SE10      30.18F
GULF SHORES    PTCLDY    68  68 100 SE9       30.19S
PENSACOLA      CLOUDY    69  66  90 SE7       30.19S
DESTIN         CLOUDY    68  64  87 SE9       30.21S
PANAMA CITY    CLEAR     64  58  83 E6        30.22F
APPALACHICOLA  CLEAR     63  62  97 E6        30.23S
$$





USA.gov is the U.S. government's official web portal to all federal, state and local government web resources and services.